Theta_e
297 297 296 296 296 295 292 295 295 293 293 295 295 297 293 293 294 294 293 293 294 297 296 296 296 298 298 296 295 295 296 299 305 308 308 309 311 311 311 316 311 311 312 316
297 297 297 296 296 295 293 294 294 293 294 293 293 293 292 292 293 292 292 292 293 293 292 292 293 293 294 293 293 293 293 298 298 301 304 306 311 310 311 311 312 312 316 315
296 296 296 296 295 295 293 294 294 293 294 294 293 293 292 291 292 292 292 292 292 292 292 292 292 292 293 293 293 294 294 294 295 298 298 297 299 302 300 303 306 313 314 313
293 294 294 295 296 295 294 294 294 293 293 293 292 292 292 292 292 292 291 291 291 291 292 291 291 292 292 292 292 293 293 294 293 294 294 294 294 294 295 298 300 303 308 310
295 294 294 294 294 294 295 294 294 294 293 293 292 292 292 292 291 291 291 291 291 292 291 291 291 291 292 292 292 292 292 293 292 292 291 291 292 293 293 294 295 297 299 303
293 293 293 293 293 293 294 294 292 294 294 293 293 292 292 292 292 292 292 292 292 292 292 292 292 292 293 292 292 292 292 293 293 293 292 292 292 292 292 293 294 295 298 299
293 293 293 293 293 293 293 292 292 296 294 292 292 292 292 292 292 292 292 292 292 293 292 292 292 292 292 292 292 292 292 292 293 294 293 294 293 292 293 293 294 295 297 299
293 293 293 293 293 293 294 294 291 295 293 292 292 292 291 291 291 291 291 292 292 292 292 292 292 291 290 291 291 292 292 293 295 295 294 293 292 293 293 293 293 295 296 300
292 292 292 293 293 293 293 293 293 292 294 292 291 292 291 292 292 292 292 293 292 292 293 292 292 291 290 290 290 292 294 296 296 295 295 294 293 294 293 296 294 295 297 299
292 292 293 293 293 293 293 293 293 292 294 292 292 293 293 292 293 293 293 293 292 292 292 292 292 291 290 292 291 292 292 292 293 293 295 294 292 289 292 297 296 293 296 299
291 291 293 293 293 293 293 293 293 292 293 292 292 292 293 293 292 293 293 293 293 293 293 292 291 291 291 291 290 289 289 287 289 289 290 293 288 288 289 292 290 291 293 296
291 292 293 293 293 293 293 293 293 292 292 292 291 290 289 288 288 290 292 292 292 293 293 293 292 291 292 292 289 286 286 284 286 285 287 286 286 287 288 288 289 291 293 297
293 293 293 293 293 293 293 292 291 291 292 292 292 290 288 288 287 287 289 291 293 293 293 293 293 293 289 286 286 284 283 283 284 284 285 285 285 287 288 295 291 292 298 302
292 293 293 293 293 293 292 291 291 290 291 291 292 288 288 287 286 286 287 288 290 291 292 292 289 289 286 285 285 283 283 283 283 283 285 284 285 285 290 298 297 298 299 298
293 292 292 292 293 292 291 290 289 290 290 291 291 289 287 286 285 286 288 289 290 291 288 287 287 287 286 285 284 283 283 282 283 283 283 284 284 284 287 291 293 294 294 293
292 292 291 290 290 290 292 292 291 290 290 290 292 289 288 287 286 286 286 287 287 288 287 286 285 286 285 284 284 282 282 282 282 282 283 283 283 283 284 286 288 288 288 289
292 290 288 288 288 291 291 291 289 288 290 290 290 290 287 287 288 286 286 286 286 287 286 285 284 284 284 282 282 282 282 282 282 282 282 282 282 282 282 283 284 285 286 286
290 287 288 288 287 289 290 288 288 286 290 289 288 287 288 286 288 288 288 287 286 286 285 284 284 283 283 282 282 282 281 282 282 282 281 281 282 281 282 282 282 283 283 284
287 287 288 288 288 289 288 285 286 285 288 288 286 286 287 286 288 288 289 288 286 286 285 284 283 282 282 282 282 281 281 281 281 282 281 281 281 281 281 281 282 282 282 282
287 287 289 291 288 284 285 286 288 287 286 287 285 285 286 285 287 289 290 288 286 286 284 285 283 283 282 281 281 281 281 280 281 281 281 281 281 281 281 281 281 281 281 281
288 289 290 288 285 287 287 287 286 286 286 285 285 284 284 286 287 288 288 287 286 284 284 283 283 282 281 280 280 280 280 279 279 279 280 280 280 280 280 280 280 280 280 280
286 286 286 285 285 286 285 284 284 285 284 284 283 283 283 285 286 289 287 286 285 284 284 283 282 282 281 280 279 279 278 278 278 278 278 279 279 279 279 279 279 279 279 279
284 285 285 286 285 284 284 283 284 284 284 283 283 283 283 285 286 287 286 285 284 284 283 282 283 281 280 279 279 278 278 277 277 277 277 277 278 277 278 278 278 278 279 279
285 287 284 285 284 284 284 283 283 283 282 282 281 283 283 283 285 285 284 284 283 282 282 282 283 281 279 278 278 278 277 276 276 276 276 276 277 276 277 277 277 277 278 278
284 285 284 284 283 283 282 281 281 282 281 280 282 283 282 284 284 284 283 282 282 283 283 282 282 280 277 278 278 277 276 276 275 275 275 276 276 276 276 276 276 277 277 277
284 284 284 283 283 283 282 282 281 281 280 281 281 282 282 282 283 282 282 281 281 282 281 281 280 279 279 277 277 276 276 275 275 275 275 275 275 275 275 275 276 275 276 276
284 284 282 282 282 282 281 280 280 279 282 282 282 282 281 280 281 281 281 281 281 280 280 280 279 278 278 276 276 275 275 275 275 274 274 274 274 275 275 275 275 275 275 275
Wind_Speed
25 25 25 25 26 28 24 10 5 19 27 3 3 3 6 6 6 5 6 7 9 5 6 8 13 9 8 11 12 9 6 6 8 20 16 12 18 19 21 11 17 11 12 15
25 26 24 23 22 24 18 8 5 11 20 4 6 6 6 3 7 8 6 6 4 11 13 9 8 12 10 17 10 5 8 3 7 10 15 16 9 16 20 19 17 22 15 10
26 27 26 23 20 20 14 5 4 5 2 3 4 7 6 9 4 6 4 9 12 12 11 12 11 17 17 14 13 16 12 12 16 14 21 21 18 15 19 14 6 17 20 24
26 26 26 26 23 19 11 2 3 2 6 7 10 6 10 12 12 9 11 10 12 13 11 16 17 18 17 17 19 16 12 15 18 20 21 25 27 27 28 21 18 8 18 24
23 24 24 23 24 21 5 4 3 2 9 8 10 11 9 15 15 14 15 16 16 15 18 17 18 19 19 20 17 18 19 17 20 24 25 25 29 28 28 29 27 25 28 26
24 25 25 23 22 19 4 1 2 3 6 9 8 11 14 16 17 16 16 17 17 18 17 17 17 17 19 22 22 21 20 17 19 24 28 25 24 25 29 28 25 24 25 26
25 26 25 23 20 18 9 7 5 4 8 9 11 16 18 18 18 20 21 19 17 12 16 17 17 18 21 23 23 19 20 19 16 18 22 22 24 25 28 29 29 24 23 26
27 26 25 23 23 19 15 8 1 2 7 13 15 14 18 20 18 18 18 19 15 13 12 9 9 12 15 13 8 12 12 11 6 6 13 20 27 21 23 24 28 28 26 22
26 25 24 23 20 19 17 15 10 3 4 6 20 15 17 13 13 15 15 8 5 5 4 5 5 9 11 6 7 5 7 11 9 13 17 23 23 20 29 24 23 26 24 25
25 26 23 23 21 22 19 12 6 5 4 6 11 12 9 7 7 7 11 3 3 7 4 6 8 8 8 4 9 10 10 9 10 12 15 14 14 28 23 10 8 25 21 19
25 24 25 23 23 22 18 15 7 4 3 10 7 8 9 9 7 7 11 6 3 2 4 3 3 4 4 6 11 7 6 7 7 8 13 9 31 29 10 19 33 26 24 22
25 25 26 24 23 21 17 7 7 5 4 5 12 11 15 15 14 7 5 8 8 2 2 2 3 6 5 9 4 12 4 6 7 7 9 28 25 27 33 31 31 29 21 24
26 26 26 24 22 17 11 6 7 3 2 4 4 4 12 17 17 9 4 5 2 3 2 2 2 4 7 7 5 9 14 10 6 15 6 22 31 26 32 7 19 21 19 6
28 27 24 21 16 12 9 4 8 7 3 3 3 11 16 18 21 17 14 15 6 1 2 3 5 4 8 7 4 9 10 12 14 14 12 27 20 33 28 13 10 10 15 17
27 25 21 16 13 8 3 3 2 10 3 4 3 9 17 25 27 26 21 5 1 2 3 4 4 3 4 4 5 6 12 9 9 5 18 14 19 26 29 24 19 15 20 22
27 22 16 11 11 8 1 3 2 16 8 2 3 2 13 18 30 25 26 22 11 7 4 4 3 5 4 5 5 14 19 17 14 9 18 14 18 24 28 24 24 23 23 20
26 16 8 8 8 7 4 3 11 14 4 2 2 3 7 15 10 20 13 20 9 6 5 5 5 6 3 5 7 18 19 16 18 19 16 19 25 17 24 24 22 32 32 33
22 11 3 3 6 4 2 10 12 12 3 4 3 3 3 10 4 3 6 9 9 10 6 5 6 4 4 5 15 15 17 16 19 21 19 15 18 25 26 33 27 27 24 22
15 6 3 3 4 4 5 9 8 13 8 3 3 6 4 7 2 2 0 2 5 2 8 7 6 6 7 9 13 16 17 16 17 18 18 20 22 21 22 22 23 21 20 19
11 5 2 2 4 11 3 2 2 5 5 4 4 5 3 4 3 2 1 2 3 2 4 2 4 6 10 11 11 11 13 15 15 13 19 20 19 17 18 19 16 16 15 20
7 7 3 6 8 3 4 4 5 5 3 5 5 6 7 3 3 3 4 2 2 2 4 2 3 4 9 12 12 13 17 19 18 19 18 19 16 15 15 16 21 20 22 20
5 3 4 5 7 4 5 4 3 4 4 7 7 8 5 3 3 2 4 2 2 3 1 2 2 4 9 11 13 13 19 22 21 22 21 22 22 21 19 19 20 20 20 21
4 3 4 4 5 10 6 8 3 6 7 5 8 8 4 3 2 2 3 3 3 1 2 2 3 6 8 9 10 14 19 20 20 20 21 20 20 21 20 19 19 19 19 19
4 4 6 5 4 5 3 6 6 6 5 8 8 4 3 2 3 3 3 2 1 2 2 2 4 7 8 10 12 11 14 19 20 20 20 20 20 20 18 18 18 18 18 17
4 4 5 5 3 1 5 5 5 4 5 5 4 3 2 3 3 3 2 2 3 4 3 3 6 6 4 10 11 12 13 16 16 18 18 19 19 18 18 18 16 16 16 16
3 6 2 5 3 5 6 5 5 6 6 3 2 2 2 5 3 3 5 2 3 3 3 5 7 8 8 11 15 16 16 14 15 16 17 17 16 17 17 16 15 16 15 15
4 3 2 3 3 4 6 6 6 11 4 3 2 4 4 2 2 2 4 3 3 5 6 6 8 10 10 15 16 17 18 18 17 17 16 16 15 15 14 14 16 17 14 14
Wind_Direction
350 349 348 348 354 352 355 325 320 351 347 30 356 13 343 338 318 326 316 302 289 312 311 304 289 278 321 358 349 346 21 309 277 257 250 238 248 226 230 233 231 234 264 263
349 348 345 348 352 357 346 336 310 355 342 17 353 2 315 306 323 339 332 305 320 318 301 301 291 303 302 314 311 329 349 321 314 264 244 250 264 273 264 268 249 246 234 244
352 353 353 350 352 350 348 311 327 357 333 96 335 341 326 320 291 295 297 294 296 290 290 304 290 287 295 299 292 297 291 268 256 272 294 310 296 297 307 307 293 263 245 258
343 346 350 352 348 350 331 360 33 355 316 329 320 279 296 302 308 318 305 295 293 307 301 295 290 293 299 296 292 283 265 264 268 271 277 282 286 283 284 275 277 281 286 271
343 346 344 340 345 346 292 306 329 234 287 293 299 293 265 293 293 305 296 289 287 299 293 287 297 300 295 297 299 282 273 275 278 275 275 277 279 277 276 273 267 268 273 278
343 339 341 341 337 345 310 304 258 253 268 294 286 289 300 298 296 299 289 285 294 280 280 295 299 295 283 282 283 278 275 273 271 270 268 272 269 269 270 266 264 261 266 269
340 337 336 337 330 336 320 276 261 256 270 311 302 301 303 297 292 293 293 292 287 283 298 294 286 270 264 263 264 262 267 267 266 262 274 267 260 256 260 268 269 255 245 251
339 338 336 338 335 334 334 299 224 298 297 303 304 325 311 308 304 301 301 291 274 279 278 277 268 272 269 276 310 282 275 262 256 261 257 277 270 267 269 267 254 251 249 245
338 336 336 334 337 335 332 318 270 277 295 307 324 310 310 308 306 308 321 349 269 235 265 256 264 294 318 308 309 274 246 236 250 277 279 278 286 349 341 295 251 263 235 236
344 344 343 339 338 336 332 312 272 232 284 294 330 309 309 296 294 290 313 351 239 219 254 268 280 303 351 302 303 309 310 316 289 296 291 284 34 352 317 264 281 326 282 255
343 338 334 332 332 334 335 313 302 228 274 304 21 342 334 328 334 313 321 303 184 230 249 287 347 317 315 276 40 360 22 324 323 317 297 275 347 336 341 317 306 301 296 299
340 333 334 336 334 338 342 322 348 321 237 288 318 66 46 19 351 320 326 288 289 282 305 337 294 302 310 7 30 16 1 333 314 299 301 307 302 292 290 276 263 275 281 282
336 337 336 336 336 341 346 357 9 333 284 278 119 32 11 356 358 326 276 278 245 209 356 312 270 42 359 10 54 359 348 352 302 311 325 309 311 312 308 263 227 249 256 117
340 338 337 338 346 350 8 81 40 19 294 285 104 67 21 3 0 347 284 254 288 22 11 19 43 60 24 32 13 15 345 324 324 303 298 320 331 343 347 32 70 88 92 93
342 342 346 351 355 1 50 109 21 5 353 319 358 99 16 22 22 18 29 169 128 54 66 52 51 40 12 9 21 8 350 340 343 322 327 334 330 346 5 25 35 57 78 81
345 349 357 8 5 5 99 205 118 351 348 281 360 122 14 20 33 33 48 60 59 68 72 83 67 4 49 15 20 351 347 344 353 342 333 353 359 11 14 27 39 47 57 62
347 353 9 18 21 36 39 51 313 335 331 336 25 44 358 13 48 44 47 51 53 51 57 46 51 31 26 48 23 344 346 347 356 0 353 4 14 13 18 25 31 44 50 54
346 358 26 40 24 44 32 351 2 11 50 36 38 338 314 13 346 41 44 59 51 39 54 54 46 45 49 39 356 351 351 349 1 2 7 14 11 19 19 22 23 34 33 38
353 18 69 58 32 9 331 335 18 32 43 70 28 352 350 1 322 285 214 55 62 76 59 46 45 38 42 357 352 354 354 358 347 351 4 11 20 18 19 22 22 31 31 34
5 55 55 42 359 326 17 16 24 28 29 29 32 355 327 320 326 337 152 80 67 67 40 99 50 60 30 4 352 351 351 354 355 356 7 8 12 13 16 24 23 30 29 33
31 22 25 322 355 11 30 45 28 350 46 13 357 12 333 338 324 342 19 64 58 70 21 53 37 32 360 349 353 356 358 1 5 6 8 10 12 9 10 12 17 22 26 29
337 319 338 348 20 25 53 26 14 23 10 349 345 339 331 306 297 309 9 73 49 80 32 55 45 17 351 348 349 355 1 3 3 7 6 6 8 7 6 8 10 13 18 20
58 58 50 14 353 37 32 1 355 335 352 353 335 330 341 297 329 339 11 64 59 186 45 69 48 4 348 343 346 352 358 1 2 4 5 4 4 5 7 2 4 3 9 12
53 32 32 35 33 27 356 324 313 318 310 326 319 310 337 320 347 346 54 41 19 70 75 63 17 5 346 341 346 350 349 353 354 355 355 357 359 358 1 4 1 360 0 359
53 34 45 43 2 294 326 319 307 320 322 316 308 273 308 354 35 21 11 35 51 28 43 20 354 349 330 338 345 343 341 341 343 344 345 345 351 353 352 355 357 359 358 357
57 45 34 354 329 355 355 342 329 351 328 285 251 308 37 42 12 32 15 18 28 30 354 339 331 333 331 338 336 337 335 333 332 335 337 338 343 344 338 344 353 352 349 350
46 52 16 346 291 328 339 334 334 334 303 11 339 36 13 288 54 44 8 24 1 334 319 326 324 325 323 329 328 331 329 328 329 330 330 329 330 332 335 343 345 340 341 344